Regional Weather Roundup
Issued by NWS Portland, ME

Home | Current Version | Previous Version | Text Only | Print | Product List | Glossary On
Versions: 1 2 3 4 5 6 7 8 9 10 11 12 13 14 15 16 17 18 19 20 21 22 23 24 25 26 27 28 29 30 31 32 33 34 35 36 37 38 39 40 41 42 43 44 45 46 47 48 49 50
000
ASUS41 KGYX 201510
RWRGYX
WEATHER ROUNDUP FOR MAINE AND NEW HAMPSHIRE
NATIONAL WEATHER SERVICE GRAY ME
1000 AM EST SAT DEC 20 2014

MEZ002-005-006-010-012-015-018-020-021-024-026-027-029-201600-
MAINE

CITY           SKY/WX    TMP DP  RH WIND       PRES   REMARKS
PORTLAND       PTSUNNY   28  19  69 N10       30.34R WCI  19
SANFORD        CLOUDY    27  18  69 NE6       30.32S
BAR HARBOR     CLOUDY    25  23  93 NE9       30.33S
WISCASSET      SUNNY     27  18  69 VRB5      30.35R
ROCKLAND       CLOUDY    27  21  80 N8        30.32S
FRYEBURG       SUNNY     24  19  81 CALM      30.33R
LEWISTONAUBURN SUNNY     25  16  68 NE7       30.32R
AUGUSTA        SUNNY     23  15  71 NE10      30.33R WCI  12
WATERVILLE     SUNNY     23  12  63 N9        30.31R
BANGOR         CLOUDY    20  16  84 N10       30.36R WCI   9
GREENVILLE       N/A     15  12  88 NW6       30.24R
MILLINOCKET    CLOUDY    14  11  87 CALM      30.37R
HOULTON        CLOUDY    13   9  84 N6        30.34R
PRESQUE ISLE   CLOUDY     3  -4  72 CALM      30.34S
FRENCHVILLE    LGT SNOW  15  12  88 E5        30.31R FOG
CARIBOU        CLOUDY    14  12  92 CALM      30.34S FOG
$$

NHZ002-005-008-009-011-012-014-201600-
NEW HAMPSHIRE

CITY           SKY/WX    TMP DP  RH WIND       PRES   REMARKS
PORTSMOUTH     PTSUNNY   28  19  71 N9        30.30S
ROCHESTER      SUNNY     28  18  66 VRB6      30.31S
NASHUA         SUNNY     29  18  63 N8        30.32S
MANCHESTER     MOSUNNY   29  18  63 NW5       30.30S
CONCORD        SUNNY     27  18  69 CALM      30.31F
LACONIA        SUNNY     25  18  74 CALM      30.28F
PLYMOUTH       FAIR      23  19  85 NW3       30.31F
BERLIN         SUNNY      9   5  84 CALM      30.28S
WHITEFIELD     CLOUDY    16  13  88 CALM      30.29R
JAFFREY        SUNNY     25  19  78 CALM      30.26S
KEENE          SUNNY     25  18  74 CALM      30.30F
LEBANON        SUNNY     21  15  78 CALM      30.32S
MT WASHINGTON  MOSUNNY   23   3  42 SE15        N/A  WCI  10
$$

VTZ005-007-008-201600-
VERMONT

CITY           SKY/WX    TMP DP  RH WIND       PRES   REMARKS
ST JOHNSBURY     N/A     14   8  77 MISG      30.31S
MONTPELIER     SUNNY     12  11  95 CALM      30.32R
BURLINGTON     MOSUNNY   18  12  77 CALM      30.34S
$$

MAZ007-012-024-CTZ003-RIZ002-NYZ038-NYZ072-201600-
SOUTHERN NEW ENGLAND AND NY

CITY           SKY/WX    TMP DP  RH WIND       PRES   REMARKS
BOSTON         PTSUNNY   30  22  72 NW9       30.30S
WORCESTER      MOSUNNY   28  16  60 N7        30.25R
NANTUCKET      CLOUDY    39  33  79 N9        30.24S
PROVIDENCE     CLOUDY    32  22  66 N10       30.28S
HARTFORD       CLOUDY    28  18  66 NE7       30.29R
ALBANY         PTSUNNY   25  16  68 NW5       30.34R
NEW YORK CITY  CLOUDY    31  20  63 N7        30.31R
$$

ANZ081-ANZ082-ANZ150-NHZ014-MEZ023>029-201600-
COASTAL MARINE OBSERVATIONS

STATION/POSITION TIME  TEMP    WIND        PRES    WAVE
                       AIR SEA DIR/SP/G            HT/PER
                 (UTC) (F)     (DEG/KT/KT) (MB)    (FT/S)
MOUNT DESERT ROC 1500   29                 1025.6R
MATINICUS ROCK   1500           10/ 15/ 16 1026.1R
PORTLAND WX BUOY 1450   29 43   50/  8/ 12 1026.8R   2/ 4
WELLS            1400   26 40   10/  8/ 10 1026.3R
ISLE OF SHOALS   1500   29      10/ 21/ 24 1025.2S
JEFFREYS LEDGE   1421      49                N/A     3/ 5
CASHES LEDGE BUO 1450   35 48   30/ 12/ 17 1025.2R   3/ 5
$$

.............KEY..............
   WCI - WIND CHILL
   TC  - TEMPERATURE IN CELSIUS
   VSB - VISIBILITY IN MILES
   HX  - HEAT INDEX
   FAIR- INDICATES FEW OR NO CLOUDS BELOW 12,000 FT, WITH NO
         SIGNIFICANT WEATHER AND/OR OBSTRUCTIONS TO VISIBILITY.





USA.gov is the U.S. government's official web portal to all federal, state and local government web resources and services.